Regional Weather Roundup
Issued by NWS

Home | Current Version | Previous Version | Text Only | Print | Product List | Glossary On
Versions: 1 2 3 4 5 6 7 8 9 10 11 12 13 14 15 16 17 18 19 20 21 22 23 24 25 26 27 28 29 30 31 32 33 34 35 36 37 38 39 40 41 42 43 44 45 46 47 48 49 50
000
ASUS43 KBIS 210310
RWRND

NORTH DAKOTA REGIONAL WEATHER ROUNDUP
NATIONAL WEATHER SERVICE BISMARCK ND
1000 PM CDT THU JUL 20 2017

NOTE: "FAIR" INDICATES FEW OR NO CLOUDS BELOW 12,000 FEET WITH NO
SIGNIFICANT WEATHER AND/OR OBSTRUCTIONS TO VISIBILITY.


NDZ001>003-009>011-017-210400-
NORTHWEST NORTH DAKOTA

CITY           SKY/WX    TMP DP  RH WIND       PRES   REMARKS
WILLISTON      CLOUDY    78  60  53 NE12      29.83S
MINOT          CLOUDY    75  58  55 N14       29.87S
MINOT AFB      LGT RAIN  74  60  61 NE14      29.91R
$$

NDZ018>021-031>035-040>046-210400-
SOUTHWEST NORTH DAKOTA

CITY           SKY/WX    TMP DP  RH WIND       PRES   REMARKS
BISMARCK       CLOUDY    72  63  73 S13G24    29.89F
DICKINSON      MOCLDY    69  60  73 SE14      29.82S
GARRISON         N/A     76  56  49 S21G30    29.83F
HETTINGER ARPT CLOUDY    79  54  41 S8        29.82F
$$

NDZ004>008-012>016-024-026-027-054-210400-
NORTHEAST NORTH DAKOTA

CITY           SKY/WX    TMP DP  RH WIND       PRES   REMARKS
GRAND FORKS    CLOUDY    76  65  68 E8        29.91S
GRND FRKS AFB  CLOUDY    75  63  65 E5        29.92S
DEVILS LAKE    CLOUDY    77  67  71 S10       29.92R
$$

NDZ022-023-025-028>030-036>039-047>053-210400-
SOUTHEAST NORTH DAKOTA

CITY           SKY/WX    TMP DP  RH WIND       PRES   REMARKS
FARGO          CLOUDY    76  70  82 E6        29.92R
JAMESTOWN      CLOUDY    75  67  76 S6        29.93F
$$




USA.gov is the U.S. government's official web portal to all federal, state and local government web resources and services.